| time (UTC) | temp F | wind direction | speed MPH | gust MPH | rain 1hr in | rain 24hr in | rain mn in | humidity % | barometer mb |
| 20260906113329 | 69 | 71 | 0.0 | 0.0 | 0.00 | 0.00 | 0.00 | 99 | 1016.0 |
| 20260906112824 | 69 | 71 | 0.0 | 2.0 | 0.00 | 0.00 | 0.00 | 99 | 1015.8 |
| 20260906112320 | 69 | 81 | 0.0 | 2.0 | 0.00 | 0.00 | 0.00 | 99 | 1016.0 |
| 20260906111820 | 69 | 84 | 0.0 | 1.0 | 0.00 | 0.00 | 0.00 | 99 | 1015.8 |
| 20260906111319 | 69 | 70 | 1.0 | 2.0 | 0.00 | 0.00 | 0.00 | 99 | 1015.8 |
| 20260906110814 | 69 | 83 | 2.0 | 2.0 | 0.00 | 0.00 | 0.00 | 99 | 1015.8 |
| 20260906110311 | 69 | 83 | 0.0 | 2.0 | 0.00 | 0.00 | 0.00 | 99 | 1015.6 |
| 20260906105810 | 69 | 84 | 0.0 | 1.0 | 0.00 | 0.00 | 0.00 | 99 | 1015.5 |
| 20260906105306 | 69 | 118 | 0.0 | 0.0 | 0.00 | 0.00 | 0.00 | 99 | 1015.5 |
| 20260906104800 | 69 | 119 | 0.0 | 0.0 | 0.00 | 0.00 | 0.00 | 99 | 1015.3 |
| 20260906104259 | 69 | 118 | 0.0 | 0.0 | 0.00 | 0.00 | 0.00 | 99 | 1015.2 |
| 20260906103757 | 69 | 119 | 0.0 | 0.0 | 0.00 | 0.00 | 0.00 | 99 | 1015.2 |
| 20260906103257 | 69 | 118 | 0.0 | 0.0 | 0.00 | 0.00 | 0.00 | 99 | 1015.0 |
| 20260906102753 | 69 | 118 | 0.0 | 0.0 | 0.00 | 0.00 | 0.00 | 99 | 1015.0 |
| 20260906102251 | 69 | 116 | 0.0 | 0.0 | 0.00 | 0.00 | 0.00 | 99 | 1015.0 |
| 20260906101747 | 69 | 115 | 0.0 | 0.0 | 0.00 | 0.00 | 0.00 | 99 | 1015.2 |
| 20260906101242 | 69 | 115 | 0.0 | 0.0 | 0.00 | 0.00 | 0.00 | 99 | 1015.1 |
| 20260906100737 | 69 | 93 | 0.0 | 1.0 | 0.00 | 0.00 | 0.00 | 99 | 1015.2 |
| 20260906100236 | 69 | 61 | 0.0 | 1.0 | 0.00 | 0.00 | 0.00 | 99 | 1015.0 |
| 20260906095732 | 69 | 61 | 1.0 | 2.0 | 0.00 | 0.00 | 0.00 | 99 | 1015.0 |
| 20260906095227 | 69 | 60 | 0.0 | 1.0 | 0.00 | 0.00 | 0.00 | 99 | 1015.2 |
| 20260906094726 | 69 | 31 | 1.0 | 2.0 | 0.00 | 0.00 | 0.00 | 99 | 1015.1 |
| 20260906094222 | 69 | 31 | 0.0 | 0.0 | 0.00 | 0.00 | 0.00 | 99 | 1015.0 |
| 20260906093718 | 69 | 30 | 1.0 | 4.0 | 0.00 | 0.00 | 0.00 | 99 | 1015.0 |
| 20260906093213 | 69 | 29 | 0.0 | 0.0 | 0.00 | 0.00 | 0.00 | 99 | 1014.8 |
| 20260906092709 | 69 | 28 | 0.0 | 0.0 | 0.00 | 0.00 | 0.00 | 99 | 1014.9 |
| 20260906092208 | 69 | 29 | 0.0 | 0.0 | 0.00 | 0.00 | 0.00 | 99 | 1015.0 |
| 20260906091704 | 68 | 29 | 0.0 | 0.0 | 0.00 | 0.00 | 0.00 | 99 | 1015.0 |
| 20260906091200 | 68 | 28 | 0.0 | 0.0 | 0.00 | 0.00 | 0.00 | 99 | 1014.8 |
| 20260906090656 | 68 | 28 | 0.0 | 0.0 | 0.00 | 0.00 | 0.00 | 99 | 1015.0 |
| 20260906090155 | 68 | 28 | 0.0 | 0.0 | 0.00 | 0.00 | 0.00 | 99 | 1014.9 |
| 20260906085655 | 68 | 28 | 0.0 | 0.0 | 0.00 | 0.00 | 0.00 | 99 | 1015.0 |
| 20260906085154 | 67 | 28 | 0.0 | 0.0 | 0.00 | 0.00 | 0.00 | 99 | 1015.1 |
| 20260906084649 | 67 | 28 | 0.0 | 0.0 | 0.00 | 0.00 | 0.00 | 99 | 1015.0 |
| 20260906084148 | 67 | 28 | 0.0 | 0.0 | 0.00 | 0.00 | 0.00 | 99 | 1015.0 |
| 20260906083643 | 68 | 28 | 0.0 | 0.0 | 0.00 | 0.00 | 0.00 | 99 | 1015.0 |
| 20260906083139 | 68 | 28 | 0.0 | 0.0 | 0.00 | 0.00 | 0.00 | 99 | 1015.2 |
| 20260906082634 | 67 | 28 | 0.0 | 0.0 | 0.00 | 0.00 | 0.00 | 99 | 1015.0 |
| 20260906082129 | 67 | 28 | 0.0 | 0.0 | 0.00 | 0.00 | 0.00 | 99 | 1015.2 |
| 20260906081625 | 67 | 28 | 0.0 | 0.0 | 0.00 | 0.00 | 0.00 | 99 | 1014.7 |
| 20260906081120 | 67 | 28 | 0.0 | 0.0 | 0.00 | 0.00 | 0.00 | 99 | 1015.0 |
| 20260906080617 | 67 | 28 | 0.0 | 0.0 | 0.00 | 0.00 | 0.00 | 99 | 1014.9 |
| 20260906080113 | 67 | 28 | 0.0 | 0.0 | 0.00 | 0.00 | 0.00 | 99 | 1014.9 |
| 20260906075612 | 66 | 28 | 0.0 | 0.0 | 0.00 | 0.00 | 0.00 | 99 | 1015.0 |
| 20260906075107 | 66 | 28 | 0.0 | 0.0 | 0.00 | 0.00 | 0.00 | 99 | 1014.9 |
| 20260906074602 | 66 | 28 | 0.0 | 0.0 | 0.00 | 0.00 | 0.00 | 99 | 1015.1 |
| 20260906074055 | 66 | 28 | 0.0 | 0.0 | 0.00 | 0.00 | 0.00 | 99 | 1015.0 |
| 20260906073550 | 66 | 28 | 0.0 | 0.0 | 0.00 | 0.00 | 0.00 | 99 | 1015.0 |
| 20260906073046 | 66 | 28 | 0.0 | 0.0 | 0.00 | 0.00 | 0.00 | 99 | 1014.9 |
| 20260906072540 | 66 | 28 | 0.0 | 0.0 | 0.00 | 0.00 | 0.00 | 99 | 1014.9 |
| 20260906072037 | 66 | 28 | 0.0 | 0.0 | 0.00 | 0.00 | 0.00 | 99 | 1014.8 |
| 20260906071533 | 66 | 28 | 0.0 | 0.0 | 0.00 | 0.00 | 0.00 | 99 | 1014.9 |
| 20260906071027 | 66 | 28 | 0.0 | 0.0 | 0.00 | 0.00 | 0.00 | 99 | 1014.9 |
| 20260906070524 | 66 | 28 | 0.0 | 0.0 | 0.00 | 0.00 | 0.00 | 99 | 1014.6 |
| 20260906070020 | 66 | 28 | 0.0 | 0.0 | 0.00 | 0.00 | 0.00 | 99 | 1014.9 |
| 20260906065519 | 66 | 28 | 0.0 | 0.0 | 0.00 | 0.00 | 0.00 | 99 | 1014.9 |
| 20260906065015 | 66 | 28 | 0.0 | 0.0 | 0.00 | 0.00 | 0.00 | 99 | 1014.8 |
| 20260906064511 | 66 | 28 | 0.0 | 0.0 | 0.00 | 0.00 | 0.00 | 99 | 1014.8 |
| 20260906064005 | 66 | 28 | 0.0 | 0.0 | 0.00 | 0.00 | 0.00 | 99 | 1015.0 |
| 20260906063501 | 66 | 28 | 0.0 | 0.0 | 0.00 | 0.00 | 0.00 | 99 | 1014.9 |
| 20260906062956 | 66 | 28 | 0.0 | 0.0 | 0.00 | 0.00 | 0.00 | 99 | 1015.1 |
| 20260906062451 | 66 | 28 | 0.0 | 0.0 | 0.00 | 0.00 | 0.00 | 99 | 1015.0 |
| 20260906061946 | 67 | 28 | 0.0 | 0.0 | 0.00 | 0.00 | 0.00 | 99 | 1015.2 |
| 20260906061442 | 67 | 28 | 0.0 | 0.0 | 0.00 | 0.00 | 0.00 | 99 | 1015.0 |
| 20260906060936 | 67 | 28 | 0.0 | 0.0 | 0.00 | 0.00 | 0.00 | 99 | 1015.0 |
| 20260906060433 | 67 | 28 | 0.0 | 0.0 | 0.00 | 0.00 | 0.00 | 99 | 1014.9 |
| 20260906055929 | 67 | 28 | 0.0 | 0.0 | 0.00 | 0.00 | 0.00 | 99 | 1015.1 |
| 20260906055425 | 67 | 28 | 0.0 | 0.0 | 0.00 | 0.00 | 0.00 | 99 | 1015.1 |
| 20260906054920 | 67 | 28 | 0.0 | 0.0 | 0.00 | 0.00 | 0.00 | 99 | 1015.1 |
| 20260906054415 | 67 | 28 | 0.0 | 0.0 | 0.00 | 0.00 | 0.00 | 99 | 1015.1 |
| 20260906053911 | 67 | 28 | 0.0 | 0.0 | 0.00 | 0.00 | 0.00 | 99 | 1015.2 |
| 20260906053407 | 67 | 28 | 0.0 | 0.0 | 0.00 | 0.00 | 0.00 | 99 | 1015.0 |
| 20260906052902 | 67 | 28 | 0.0 | 0.0 | 0.00 | 0.00 | 0.00 | 99 | 1015.2 |
| 20260906052358 | 67 | 28 | 0.0 | 0.0 | 0.00 | 0.00 | 0.00 | 99 | 1015.2 |
| 20260906051854 | 67 | 28 | 0.0 | 0.0 | 0.00 | 0.00 | 0.00 | 99 | 1015.0 |
| 20260906051355 | 67 | 28 | 0.0 | 0.0 | 0.00 | 0.00 | 0.00 | 99 | 1015.0 |
| 20260906050850 | 67 | 28 | 0.0 | 0.0 | 0.00 | 0.00 | 0.00 | 99 | 1014.7 |
| 20260906050345 | 67 | 28 | 0.0 | 0.0 | 0.00 | 0.00 | 0.00 | 99 | 1014.7 |
| 20260906045844 | 67 | 28 | 0.0 | 0.0 | 0.00 | 0.00 | 0.00 | 99 | 1014.9 |
| 20260906045338 | 67 | 28 | 0.0 | 0.0 | 0.00 | 0.00 | 0.00 | 99 | 1014.6 |
| 20260906044834 | 67 | 28 | 0.0 | 0.0 | 0.00 | 0.00 | 0.00 | 99 | 1014.6 |
| 20260906044329 | 67 | 28 | 0.0 | 0.0 | 0.00 | 0.00 | 0.00 | 99 | 1014.6 |
| 20260906043827 | 68 | 28 | 0.0 | 0.0 | 0.00 | 0.00 | 0.00 | 99 | 1014.8 |
| 20260906043320 | 67 | 28 | 0.0 | 0.0 | 0.00 | 0.00 | 0.00 | 99 | 1014.8 |
| 20260906042814 | 68 | 28 | 0.0 | 0.0 | 0.00 | 0.00 | 0.00 | 99 | 1014.9 |
| 20260906042313 | 68 | 28 | 0.0 | 0.0 | 0.00 | 0.00 | 0.00 | 99 | 1015.0 |
| 20260906041809 | 68 | 28 | 0.0 | 0.0 | 0.00 | 0.00 | 0.00 | 99 | 1015.0 |
| 20260906041304 | 68 | 28 | 0.0 | 0.0 | 0.00 | 0.00 | 0.00 | 99 | 1014.8 |
| 20260906040759 | 68 | 28 | 0.0 | 0.0 | 0.00 | 0.00 | 0.00 | 99 | 1015.0 |
| 20260906040255 | 68 | 28 | 0.0 | 0.0 | 0.00 | 0.00 | 0.00 | 99 | 1014.9 |
| 20260906035750 | 68 | 28 | 0.0 | 0.0 | 0.00 | 0.00 | 0.00 | 99 | 1015.0 |
| 20260906035245 | 68 | 28 | 0.0 | 0.0 | 0.00 | 0.00 | 0.00 | 99 | 1015.1 |
| 20260906034740 | 69 | 28 | 0.0 | 0.0 | 0.00 | 0.00 | 0.00 | 99 | 1015.1 |
| 20260906034235 | 68 | 28 | 0.0 | 0.0 | 0.00 | 0.00 | 0.00 | 99 | 1015.0 |
| 20260906033731 | 68 | 28 | 0.0 | 0.0 | 0.00 | 0.00 | 0.00 | 99 | 1015.0 |
| 20260906033230 | 69 | 28 | 0.0 | 0.0 | 0.00 | 0.00 | 0.00 | 99 | 1014.9 |
| 20260906032727 | 69 | 28 | 0.0 | 0.0 | 0.00 | 0.00 | 0.00 | 99 | 1015.1 |
| 20260906032227 | 68 | 28 | 0.0 | 0.0 | 0.00 | 0.00 | 0.00 | 99 | 1015.0 |
| 20260906031722 | 69 | 28 | 0.0 | 0.0 | 0.00 | 0.00 | 0.00 | 99 | 1015.1 |
| 20260906031218 | 69 | 28 | 0.0 | 0.0 | 0.00 | 0.00 | 0.00 | 99 | 1015.4 |
| 20260906030717 | 69 | 28 | 0.0 | 0.0 | 0.00 | 0.00 | 0.00 | 99 | 1015.3 |
| 20260906030212 | 68 | 28 | 0.0 | 0.0 | 0.00 | 0.00 | 0.00 | 99 | 1015.4 |
| 20260906025711 | 69 | 28 | 0.0 | 0.0 | 0.00 | 0.00 | 0.00 | 99 | 1015.5 |
| 20260906025206 | 69 | 28 | 0.0 | 0.0 | 0.00 | 0.00 | 0.00 | 99 | 1015.2 |
| 20260906024700 | 69 | 28 | 0.0 | 0.0 | 0.00 | 0.00 | 0.00 | 99 | 1015.3 |
| 20260906024159 | 69 | 28 | 0.0 | 0.0 | 0.00 | 0.00 | 0.00 | 99 | 1015.4 |
| 20260906023655 | 69 | 28 | 0.0 | 0.0 | 0.00 | 0.00 | 0.00 | 99 | 1015.3 |
| 20260906023155 | 69 | 28 | 0.0 | 0.0 | 0.00 | 0.00 | 0.00 | 99 | 1015.3 |
| 20260906022650 | 69 | 28 | 0.0 | 0.0 | 0.00 | 0.00 | 0.00 | 99 | 1015.4 |
| 20260906022146 | 69 | 28 | 0.0 | 0.0 | 0.00 | 0.00 | 0.00 | 99 | 1015.1 |
| 20260906021642 | 69 | 28 | 0.0 | 0.0 | 0.00 | 0.00 | 0.00 | 99 | 1015.1 |
| 20260906021140 | 70 | 28 | 0.0 | 0.0 | 0.00 | 0.00 | 0.00 | 99 | 1015.1 |
| 20260906020635 | 69 | 28 | 0.0 | 0.0 | 0.00 | 0.00 | 0.00 | 99 | 1015.1 |
| 20260906020130 | 69 | 28 | 0.0 | 0.0 | 0.00 | 0.00 | 0.00 | 99 | 1015.1 |
| 20260906015624 | 70 | 28 | 0.0 | 0.0 | 0.00 | 0.00 | 0.00 | 99 | 1015.2 |
| 20260906015122 | 70 | 28 | 0.0 | 0.0 | 0.00 | 0.00 | 0.00 | 99 | 1015.2 |
| 20260906014617 | 70 | 28 | 0.0 | 0.0 | 0.00 | 0.00 | 0.00 | 99 | 1015.3 |
| 20260906014114 | 70 | 28 | 0.0 | 0.0 | 0.00 | 0.00 | 0.00 | 99 | 1015.0 |
| 20260906013609 | 70 | 28 | 0.0 | 0.0 | 0.00 | 0.00 | 0.00 | 99 | 1015.0 |
| 20260906013104 | 70 | 28 | 0.0 | 0.0 | 0.00 | 0.00 | 0.00 | 99 | 1014.9 |
| 20260906012559 | 70 | 28 | 0.0 | 0.0 | 0.00 | 0.00 | 0.00 | 99 | 1014.7 |
| 20260906012058 | 70 | 28 | 0.0 | 0.0 | 0.00 | 0.00 | 0.00 | 99 | 1014.5 |
| 20260906011554 | 70 | 28 | 0.0 | 0.0 | 0.00 | 0.00 | 0.00 | 99 | 1014.5 |
| 20260906011049 | 70 | 28 | 0.0 | 0.0 | 0.00 | 0.00 | 0.00 | 99 | 1014.5 |
| 20260906010545 | 71 | 28 | 0.0 | 0.0 | 0.00 | 0.00 | 0.00 | 99 | 1014.4 |
| 20260906010041 | 71 | 28 | 0.0 | 0.0 | 0.00 | 0.00 | 0.00 | 99 | 1014.5 |
| 20260906005539 | 71 | 28 | 0.0 | 0.0 | 0.00 | 0.00 | 0.00 | 99 | 1014.5 |
| 20260906005038 | 71 | 28 | 0.0 | 0.0 | 0.00 | 0.00 | 0.00 | 99 | 1014.4 |
| 20260906004533 | 71 | 28 | 0.0 | 0.0 | 0.00 | 0.00 | 0.00 | 99 | 1014.3 |
| 20260906004028 | 71 | 28 | 0.0 | 0.0 | 0.00 | 0.00 | 0.00 | 99 | 1014.4 |
| 20260906003523 | 71 | 28 | 0.0 | 0.0 | 0.00 | 0.00 | 0.00 | 99 | 1014.3 |
| 20260906003019 | 72 | 28 | 0.0 | 0.0 | 0.00 | 0.00 | 0.00 | 99 | 1014.2 |
| 20260906002519 | 72 | 28 | 0.0 | 0.0 | 0.00 | 0.00 | 0.00 | 99 | 1014.1 |
| 20260906002013 | 72 | 28 | 0.0 | 0.0 | 0.00 | 0.00 | 0.00 | 99 | 1014.3 |
| 20260906001509 | 73 | 28 | 0.0 | 0.0 | 0.00 | 0.00 | 0.00 | 99 | 1014.5 |
| 20260906001003 | 73 | 28 | 0.0 | 0.0 | 0.00 | 0.00 | 0.00 | 99 | 1014.5 |
| 20260906000500 | 73 | 28 | 0.0 | 0.0 | 0.00 | 0.00 | 0.00 | 99 | 1014.3 |
| 20260906000000 | 74 | 28 | 0.0 | 0.0 | 0.00 | 0.00 | 0.00 | 98 | 1014.3 |
| 20260905235459 | 74 | 28 | 0.0 | 0.0 | 0.00 | 0.00 | 0.00 | 98 | 1014.4 |
| 20260905234954 | 75 | 28 | 0.0 | 0.0 | 0.00 | 0.00 | 0.00 | 96 | 1014.4 |
| 20260905234450 | 75 | 28 | 0.0 | 0.0 | 0.00 | 0.00 | 0.00 | 95 | 1014.4 |
| 20260905233944 | 75 | 28 | 0.0 | 0.0 | 0.00 | 0.00 | 0.00 | 95 | 1014.4 |
| 20260905233440 | 77 | 27 | 0.0 | 0.0 | 0.00 | 0.00 | 0.00 | 93 | 1014.4 |
| 20260905232938 | 79 | 27 | 0.0 | 0.0 | 0.00 | 0.00 | 0.00 | 87 | 1014.3 |
| 20260905232435 | 79 | 27 | 0.0 | 0.0 | 0.00 | 0.00 | 0.00 | 88 | 1014.1 |
| 20260905231930 | 79 | 27 | 0.0 | 0.0 | 0.00 | 0.00 | 0.00 | 88 | 1014.5 |
| 20260905231426 | 80 | 27 | 1.0 | 1.0 | 0.00 | 0.00 | 0.00 | 87 | 1014.4 |
| 20260905230922 | 82 | 27 | 0.0 | 0.0 | 0.00 | 0.00 | 0.00 | 83 | 1014.3 |
| 20260905230420 | 83 | 26 | 0.0 | 0.0 | 0.00 | 0.00 | 0.00 | 80 | 1014.2 |
| 20260905225919 | 83 | 26 | 0.0 | 0.0 | 0.00 | 0.00 | 0.00 | 76 | 1014.4 |
| 20260905225414 | 84 | 26 | 1.0 | 1.0 | 0.00 | 0.00 | 0.00 | 73 | 1014.3 |
| 20260905224909 | 84 | 26 | 1.0 | 1.0 | 0.00 | 0.00 | 0.00 | 73 | 1014.2 |
| 20260905224405 | 84 | 320 | 1.0 | 2.0 | 0.00 | 0.00 | 0.00 | 69 | 1014.4 |
| 20260905223859 | 84 | 284 | 2.0 | 3.0 | 0.00 | 0.00 | 0.00 | 71 | 1014.3 |
| 20260905223358 | 85 | 308 | 2.0 | 2.0 | 0.00 | 0.00 | 0.00 | 71 | 1014.4 |
| 20260905222857 | 84 | 339 | 2.0 | 3.0 | 0.00 | 0.00 | 0.00 | 70 | 1014.6 |
| 20260905222356 | 83 | 9 | 2.0 | 3.0 | 0.00 | 0.00 | 0.00 | 71 | 1014.7 |
| 20260905221853 | 85 | 302 | 2.0 | 3.0 | 0.00 | 0.00 | 0.00 | 71 | 1014.5 |
| 20260905221350 | 85 | 356 | 2.0 | 3.0 | 0.00 | 0.00 | 0.00 | 71 | 1014.7 |
| 20260905220844 | 85 | 299 | 2.0 | 3.0 | 0.00 | 0.00 | 0.00 | 72 | 1014.7 |
| 20260905220341 | 84 | 38 | 0.0 | 1.0 | 0.00 | 0.00 | 0.00 | 73 | 1014.6 |
| 20260905215840 | 82 | 355 | 0.0 | 2.0 | 0.00 | 0.00 | 0.00 | 74 | 1014.7 |
| 20260905215336 | 82 | 322 | 2.0 | 4.0 | 0.00 | 0.00 | 0.00 | 74 | 1014.7 |
| 20260905214833 | 82 | 351 | 2.0 | 4.0 | 0.00 | 0.00 | 0.00 | 73 | 1014.6 |
| 20260905214332 | 83 | 324 | 1.0 | 4.0 | 0.00 | 0.00 | 0.00 | 73 | 1014.4 |
| 20260905213828 | 84 | 295 | 3.0 | 3.0 | 0.00 | 0.00 | 0.00 | 69 | 1014.4 |
| 20260905213324 | 85 | 15 | 3.0 | 3.0 | 0.00 | 0.00 | 0.00 | 67 | 1014.2 |
| 20260905212818 | 84 | 347 | 0.0 | 2.0 | 0.00 | 0.00 | 0.00 | 67 | 1014.2 |
| 20260905212313 | 82 | 37 | 2.0 | 3.0 | 0.00 | 0.00 | 0.00 | 73 | 1014.2 |
| 20260905211813 | 83 | 51 | 2.0 | 3.0 | 0.00 | 0.00 | 0.00 | 70 | 1014.1 |
| 20260905211308 | 84 | 73 | 0.0 | 2.0 | 0.00 | 0.00 | 0.00 | 68 | 1013.9 |
| 20260905210804 | 84 | 82 | 0.0 | 3.0 | 0.00 | 0.00 | 0.00 | 68 | 1014.1 |
| 20260905210304 | 83 | 37 | 4.0 | 6.0 | 0.00 | 0.00 | 0.00 | 70 | 1014.3 |
| 20260905205802 | 84 | 69 | 4.0 | 6.0 | 0.00 | 0.00 | 0.00 | 68 | 1014.0 |
| 20260905205257 | 84 | 33 | 1.0 | 6.0 | 0.00 | 0.00 | 0.00 | 72 | 1014.2 |
| 20260905204756 | 83 | 39 | 2.0 | 8.0 | 0.00 | 0.00 | 0.00 | 71 | 1014.2 |
| 20260905204253 | 83 | 333 | 1.0 | 4.0 | 0.00 | 0.00 | 0.00 | 69 | 1014.2 |
| 20260905203752 | 85 | 270 | 1.0 | 3.0 | 0.00 | 0.00 | 0.00 | 67 | 1014.2 |
| 20260905203247 | 85 | 274 | 3.0 | 6.0 | 0.00 | 0.00 | 0.00 | 65 | 1014.2 |
| 20260905202743 | 85 | 27 | 4.0 | 4.0 | 0.00 | 0.00 | 0.00 | 70 | 1014.5 |
| 20260905202238 | 83 | 54 | 0.0 | 2.0 | 0.00 | 0.00 | 0.00 | 68 | 1014.4 |
| 20260905201733 | 84 | 18 | 4.0 | 6.0 | 0.00 | 0.00 | 0.00 | 69 | 1014.3 |
| 20260905201228 | 84 | 27 | 1.0 | 3.0 | 0.00 | 0.00 | 0.00 | 70 | 1014.5 |
| 20260905200723 | 83 | 31 | 1.0 | 3.0 | 0.00 | 0.00 | 0.00 | 71 | 1014.5 |
| 20260905200219 | 83 | 142 | 1.0 | 4.0 | 0.00 | 0.00 | 0.00 | 68 | 1014.5 |
| 20260905195718 | 83 | 83 | 1.0 | 3.0 | 0.00 | 0.00 | 0.00 | 69 | 1014.6 |
| 20260905195218 | 85 | 346 | 3.0 | 3.0 | 0.00 | 0.00 | 0.00 | 68 | 1014.6 |
| 20260905194713 | 85 | 267 | 0.0 | 0.0 | 0.00 | 0.00 | 0.00 | 66 | 1014.6 |
| 20260905194213 | 85 | 285 | 2.0 | 3.0 | 0.00 | 0.00 | 0.00 | 67 | 1014.7 |
| 20260905193707 | 84 | 1 | 0.0 | 3.0 | 0.00 | 0.00 | 0.00 | 68 | 1014.9 |
| 20260905193202 | 84 | 113 | 0.0 | 0.0 | 0.00 | 0.00 | 0.00 | 68 | 1014.8 |
| 20260905192658 | 83 | 320 | 2.0 | 3.0 | 0.00 | 0.00 | 0.00 | 68 | 1014.9 |
| 20260905192154 | 84 | 63 | 1.0 | 2.0 | 0.00 | 0.00 | 0.00 | 69 | 1015.0 |
| 20260905191654 | 83 | 302 | 0.0 | 4.0 | 0.00 | 0.00 | 0.00 | 69 | 1014.9 |
| 20260905191152 | 84 | 316 | 3.0 | 4.0 | 0.00 | 0.00 | 0.00 | 70 | 1015.3 |
| 20260905190651 | 85 | 30 | 0.0 | 0.0 | 0.00 | 0.00 | 0.00 | 70 | 1015.3 |
| 20260905190150 | 85 | 60 | 2.0 | 3.0 | 0.00 | 0.00 | 0.00 | 73 | 1015.4 |
| 20260905185649 | 83 | 271 | 0.0 | 3.0 | 0.00 | 0.00 | 0.00 | 68 | 1015.3 |
| 20260905185144 | 81 | 207 | 0.0 | 2.0 | 0.00 | 0.00 | 0.00 | 73 | 1015.3 |
| 20260905184643 | 81 | 147 | 1.0 | 1.0 | 0.00 | 0.00 | 0.00 | 73 | 1015.6 |
| 20260905184142 | 83 | 209 | 1.0 | 3.0 | 0.00 | 0.00 | 0.00 | 76 | 1015.6 |
| 20260905183641 | 81 | 38 | 2.0 | 3.0 | 0.00 | 0.00 | 0.00 | 73 | 1015.7 |
| 20260905183137 | 82 | 309 | 3.0 | 3.0 | 0.00 | 0.00 | 0.00 | 73 | 1015.7 |
| 20260905182637 | 81 | 347 | 2.0 | 2.0 | 0.00 | 0.00 | 0.00 | 73 | 1015.9 |
| 20260905182136 | 82 | 267 | 4.0 | 4.0 | 0.00 | 0.00 | 0.00 | 72 | 1015.9 |
| 20260905181631 | 81 | 275 | 4.0 | 6.0 | 0.00 | 0.00 | 0.00 | 74 | 1015.7 |
| 20260905181130 | 80 | 283 | 1.0 | 6.0 | 0.00 | 0.00 | 0.00 | 74 | 1015.8 |
| 20260905180625 | 80 | 189 | 2.0 | 6.0 | 0.00 | 0.00 | 0.00 | 77 | 1015.9 |
| 20260905180121 | 80 | 139 | 2.0 | 4.0 | 0.00 | 0.00 | 0.00 | 77 | 1015.9 |
| 20260905175620 | 81 | 214 | 4.0 | 6.0 | 0.00 | 0.00 | 0.00 | 73 | 1016.0 |
| 20260905175115 | 80 | 208 | 2.0 | 3.0 | 0.00 | 0.00 | 0.00 | 78 | 1016.0 |
| 20260905174611 | 79 | 222 | 0.0 | 4.0 | 0.00 | 0.00 | 0.00 | 78 | 1016.0 |
| 20260905174106 | 80 | 300 | 1.0 | 2.0 | 0.00 | 0.00 | 0.00 | 81 | 1015.9 |
| 20260905173603 | 79 | 192 | 1.0 | 3.0 | 0.00 | 0.00 | 0.00 | 79 | 1016.0 |
| 20260905173058 | 80 | 121 | 2.0 | 3.0 | 0.00 | 0.00 | 0.00 | 79 | 1016.2 |
| 20260905172556 | 80 | 250 | 2.0 | 3.0 | 0.00 | 0.00 | 0.00 | 83 | 1016.1 |
| 20260905172051 | 78 | 297 | 3.0 | 4.0 | 0.00 | 0.00 | 0.00 | 79 | 1016.1 |
| 20260905171548 | 79 | 260 | 3.0 | 4.0 | 0.00 | 0.00 | 0.00 | 79 | 1016.2 |
| 20260905171044 | 79 | 233 | 3.0 | 6.0 | 0.00 | 0.00 | 0.00 | 81 | 1016.0 |
| 20260905170540 | 79 | 204 | 0.0 | 6.0 | 0.00 | 0.00 | 0.00 | 80 | 1016.0 |
| 20260905170035 | 79 | 246 | 1.0 | 2.0 | 0.00 | 0.00 | 0.00 | 81 | 1016.4 |
| 20260905165530 | 78 | 207 | 2.0 | 7.0 | 0.00 | 0.00 | 0.00 | 86 | 1016.7 |
| 20260905165020 | 79 | 220 | 2.0 | 4.0 | 0.00 | 0.00 | 0.00 | 82 | 1016.6 |
| 20260905164519 | 79 | 242 | 3.0 | 3.0 | 0.00 | 0.00 | 0.00 | 81 | 1016.9 |
| 20260905164014 | 78 | 227 | 0.0 | 2.0 | 0.00 | 0.00 | 0.00 | 83 | 1017.1 |
| 20260905163510 | 79 | 160 | 2.0 | 3.0 | 0.00 | 0.00 | 0.00 | 83 | 1017.2 |
| 20260905163006 | 78 | 235 | 1.0 | 3.0 | 0.00 | 0.00 | 0.00 | 89 | 1017.5 |
| 20260905162502 | 78 | 286 | 2.0 | 6.0 | 0.00 | 0.00 | 0.00 | 86 | 1017.4 |
| 20260905161956 | 78 | 245 | 3.0 | 3.0 | 0.00 | 0.00 | 0.00 | 83 | 1017.6 |
| 20260905161456 | 79 | 197 | 0.0 | 3.0 | 0.00 | 0.00 | 0.00 | 86 | 1017.6 |
| 20260905160954 | 76 | 260 | 2.0 | 3.0 | 0.00 | 0.00 | 0.00 | 91 | 1017.4 |
| 20260905160448 | 76 | 293 | 0.0 | 0.0 | 0.00 | 0.00 | 0.00 | 91 | 1017.5 |
| 20260905155947 | 75 | 34 | 0.0 | 0.0 | 0.00 | 0.00 | 0.00 | 93 | 1017.3 |
| 20260905155442 | 75 | 36 | 2.0 | 3.0 | 0.00 | 0.00 | 0.00 | 94 | 1017.3 |
| 20260905154941 | 75 | 47 | 1.0 | 1.0 | 0.00 | 0.00 | 0.00 | 94 | 1017.5 |
| 20260905154436 | 75 | 2 | 0.0 | 2.0 | 0.00 | 0.00 | 0.00 | 94 | 1017.4 |
| 20260905153932 | 74 | 13 | 0.0 | 0.0 | 0.00 | 0.00 | 0.00 | 95 | 1017.5 |
| 20260905153428 | 74 | 43 | 1.0 | 2.0 | 0.00 | 0.00 | 0.00 | 95 | 1017.3 |
| 20260905152927 | 73 | 95 | 1.0 | 1.0 | 0.00 | 0.00 | 0.00 | 95 | 1017.1 |
| 20260905152427 | 73 | 45 | 0.0 | 0.0 | 0.00 | 0.00 | 0.00 | 98 | 1017.3 |
| 20260905151922 | 73 | 73 | 0.0 | 0.0 | 0.00 | 0.00 | 0.00 | 98 | 1017.1 |
| 20260905151418 | 72 | 122 | 0.0 | 1.0 | 0.00 | 0.00 | 0.00 | 99 | 1017.1 |
| 20260905150919 | 72 | 38 | 1.0 | 2.0 | 0.00 | 0.00 | 0.00 | 99 | 1016.7 |
| 20260905150419 | 72 | 358 | 2.0 | 2.0 | 0.00 | 0.00 | 0.00 | 99 | 1016.8 |
| 20260905145915 | 72 | 312 | 0.0 | 1.0 | 0.00 | 0.00 | 0.00 | 99 | 1016.4 |
| 20260905145410 | 71 | 59 | 1.0 | 3.0 | 0.00 | 0.00 | 0.00 | 99 | 1016.3 |
| 20260905144909 | 71 | 8 | 0.0 | 0.0 | 0.00 | 0.00 | 0.00 | 99 | 1015.8 |
| 20260905144405 | 71 | 258 | 1.0 | 2.0 | 0.00 | 0.00 | 0.00 | 99 | 1015.6 |
| 20260905143903 | 71 | 232 | 1.0 | 2.0 | 0.00 | 0.00 | 0.00 | 99 | 1015.5 |
| 20260905143358 | 71 | 177 | 3.0 | 3.0 | 0.00 | 0.00 | 0.00 | 99 | 1015.0 |
| 20260905142857 | 70 | 222 | 2.0 | 3.0 | 0.00 | 0.00 | 0.00 | 99 | 1015.4 |
| 20260905142355 | 70 | 207 | 4.0 | 6.0 | 0.00 | 0.00 | 0.00 | 99 | 1015.6 |
| 20260905141852 | 70 | 236 | 2.0 | 3.0 | 0.00 | 0.00 | 0.00 | 99 | 1016.2 |
| 20260905141347 | 70 | 89 | 1.0 | 3.0 | 0.00 | 0.00 | 0.00 | 99 | 1016.2 |
| 20260905140843 | 70 | 218 | 2.0 | 4.0 | 0.00 | 0.00 | 0.00 | 99 | 1015.6 |
| 20260905140343 | 70 | 213 | 2.0 | 4.0 | 0.00 | 0.00 | 0.00 | 99 | 1015.9 |
| 20260905135841 | 70 | 195 | 3.0 | 3.0 | 0.00 | 0.00 | 0.00 | 99 | 1016.2 |
| 20260905135338 | 70 | 309 | 2.0 | 2.0 | 0.00 | 0.00 | 0.00 | 99 | 1016.7 |
| 20260905134833 | 70 | 227 | 2.0 | 6.0 | 0.00 | 0.00 | 0.00 | 99 | 1016.3 |
| 20260905134332 | 70 | 262 | 0.0 | 0.0 | 0.00 | 0.00 | 0.00 | 99 | 1016.7 |
| 20260905133826 | 69 | 239 | 1.0 | 3.0 | 0.00 | 0.00 | 0.00 | 99 | 1017.0 |
| 20260905133322 | 69 | 206 | 0.0 | 0.0 | 0.00 | 0.00 | 0.00 | 99 | 1017.1 |
| 20260905132820 | 69 | 206 | 0.0 | 0.0 | 0.00 | 0.00 | 0.00 | 99 | 1017.1 |
| 20260905132317 | 69 | 206 | 0.0 | 0.0 | 0.00 | 0.00 | 0.00 | 99 | 1017.2 |
| 20260905131811 | 69 | 206 | 0.0 | 0.0 | 0.00 | 0.00 | 0.00 | 99 | 1017.2 |
| 20260905131307 | 69 | 206 | 0.0 | 0.0 | 0.00 | 0.00 | 0.00 | 99 | 1017.0 |
| 20260905130802 | 69 | 206 | 0.0 | 0.0 | 0.00 | 0.00 | 0.00 | 99 | 1017.0 |
| 20260905130300 | 69 | 211 | 2.0 | 3.0 | 0.00 | 0.00 | 0.00 | 99 | 1016.9 |
| 20260905125756 | 69 | 221 | 0.0 | 0.0 | 0.00 | 0.00 | 0.00 | 99 | 1017.1 |
| 20260905125250 | 69 | 349 | 0.0 | 0.0 | 0.00 | 0.00 | 0.00 | 99 | 1017.1 |
| 20260905124747 | 69 | 27 | 1.0 | 2.0 | 0.00 | 0.00 | 0.00 | 99 | 1017.5 |
| 20260905124242 | 69 | 128 | 0.0 | 3.0 | 0.00 | 0.00 | 0.00 | 99 | 1017.2 |
| 20260905123737 | 69 | 200 | 0.0 | 1.0 | 0.00 | 0.00 | 0.00 | 99 | 1017.4 |
| 20260905123234 | 69 | 133 | 1.0 | 1.0 | 0.00 | 0.00 | 0.00 | 99 | 1017.4 |
| 20260905122735 | 69 | 65 | 1.0 | 2.0 | 0.00 | 0.00 | 0.00 | 99 | 1017.3 |
| 20260905122234 | 69 | 63 | 2.0 | 7.0 | 0.00 | 0.00 | 0.00 | 99 | 1017.5 |
| 20260905121729 | 69 | 21 | 1.0 | 7.0 | 0.00 | 0.00 | 0.00 | 99 | 1017.7 |
| 20260905121226 | 69 | 39 | 4.0 | 10.0 | 0.00 | 0.00 | 0.00 | 99 | 1017.8 |
| 20260905120724 | 69 | 59 | 6.0 | 8.0 | 0.00 | 0.00 | 0.00 | 99 | 1017.4 |
| 20260905120219 | 69 | 36 | 5.0 | 6.0 | 0.00 | 0.00 | 0.00 | 99 | 1017.1 |
| 20260905115720 | 69 | 114 | 0.0 | 4.0 | 0.00 | 0.00 | 0.00 | 99 | 1016.1 |
| 20260905115219 | 70 | 78 | 0.0 | 0.0 | 0.00 | 0.00 | 0.00 | 99 | 1016.6 |
| 20260905114714 | 70 | 217 | 4.0 | 6.0 | 0.00 | 0.00 | 0.00 | 99 | 1016.0 |
| 20260905114212 | 70 | 231 | 2.0 | 4.0 | 0.00 | 0.00 | 0.00 | 99 | 1016.1 |
| 20260905113712 | 70 | 40 | 4.0 | 8.0 | 0.00 | 0.00 | 0.00 | 99 | 1016.3 |